EW4415 Weather Reports


time (UTC)temp
C
wind
direction
speed
KPH
gust
KPH
rain 1hr
cm
rain 24hr
cm
rain mn
cm
humidity
%
barometer
mb
20260904073004 13 290 0.0 0.0 0.00 0.00 0.00 1 999.3
20260904071503 12 290 0.0 0.0 0.00 0.00 0.00 1 999.4
20260904070108 11 290 0.0 0.0 0.00 0.00 0.00 1 999.6
20260904064552 11 290 0.0 0.0 0.00 0.00 0.00 1 999.8
20260904063054 10 290 0.0 0.0 0.00 0.00 0.00 1 999.8
20260904061543 9 290 0.0 0.0 0.00 0.00 0.00 1 999.8
20260904060038 8 290 0.0 0.0 0.00 0.00 0.00 1 999.9
20260904054535 8 290 0.0 0.0 0.00 0.00 0.00 1 1000.1
20260904053036 7 290 0.0 0.0 0.00 0.00 0.00 1 1000.2
20260904051533 7 290 0.0 0.0 0.00 0.00 0.00 1 1000.4
20260904050032 6 290 0.0 0.0 0.00 0.00 0.00 1 1000.5
20260904044519 6 290 0.0 0.0 0.00 0.00 0.00 1 1000.7
20260904043013 6 290 0.0 0.0 0.00 0.00 0.00 1 1000.9
20260904041508 5 290 0.0 0.0 0.00 0.00 0.00 1 1001.2
20260904040004 5 290 0.0 0.0 0.00 0.00 0.00 1 1001.4
20260904034600 5 290 0.0 0.0 0.00 0.00 0.00 1 1001.5
20260904033055 5 290 0.0 0.0 0.00 0.00 0.00 1 1001.7
20260904031551 5 290 0.0 0.0 0.00 0.00 0.00 1 1001.8
20260904030047 5 290 0.0 0.0 0.00 0.00 0.00 1 1002.0
20260904024544 5 290 0.0 0.0 0.00 0.00 0.00 1 1002.1
20260904023038 5 290 0.0 0.0 0.00 0.00 0.00 1 1002.3
20260904021539 5 290 0.0 0.0 0.00 0.00 0.00 1 1002.4
20260904020030 5 290 0.0 0.0 0.00 0.00 0.00 1 1002.4
20260904014526 5 290 0.0 0.0 0.00 0.00 0.00 1 1002.5
20260904013021 5 290 0.0 0.0 0.00 0.00 0.00 1 1002.7
20260904011524 5 290 0.0 0.0 0.00 0.00 0.00 1 1002.8
20260904010013 5 290 0.0 0.0 0.00 0.00 0.00 1 1003.1
20260904004513 5 290 0.0 0.0 0.00 0.00 0.00 1 1003.3
20260904003004 5 290 0.0 0.0 0.00 0.00 0.00 1 1003.4
20260904001601 6 290 0.0 0.0 0.00 0.00 0.00 1 1003.5
20260904000138 6 290 0.0 0.0 0.00 0.00 0.00 1 1003.6
20260903234553 6 290 0.0 0.0 0.00 0.00 0.00 1 1003.8
20260903233047 6 290 0.0 0.0 0.00 0.00 0.00 1 1003.9
20260903231547 6 290 0.0 0.0 0.00 0.00 0.00 1 1004.1
20260903230038 6 290 0.0 0.0 0.00 0.00 0.00 1 1004.2
20260903224544 6 290 0.0 0.0 0.00 0.00 0.00 1 1004.3
20260903223033 7 290 0.0 0.0 0.00 0.00 0.00 1 1004.4
20260903221525 7 290 0.0 0.0 0.00 0.00 0.00 1 1004.6
20260903220021 7 290 0.0 0.0 0.00 0.00 0.00 1 1004.6
20260903214522 7 290 0.0 0.0 0.00 0.00 0.00 1 1004.8
20260903213021 8 290 0.0 0.0 0.00 0.00 0.00 1 1004.9
20260903211507 8 290 0.0 0.0 0.00 0.00 0.00 1 1004.9
20260903210002 8 290 0.0 0.0 0.00 0.00 0.00 1 1005.0
20260903204559 9 290 0.0 0.0 0.00 0.00 0.00 1 1004.9
20260903203053 10 290 0.0 0.0 0.00 0.00 0.00 1 1004.9
20260903201550 10 290 0.0 0.0 0.00 0.00 0.00 1 1005.1
20260903200046 10 290 0.0 0.0 0.00 0.00 0.00 1 1005.2
20260903194548 10 290 0.0 0.0 0.00 0.00 0.00 1 1005.2
20260903193042 11 290 0.0 0.0 0.00 0.00 0.00 1 1005.2
20260903191541 11 290 0.0 0.0 0.00 0.00 0.00 1 1005.0
20260903190029 11 290 0.0 0.0 0.00 0.00 0.00 1 1005.2
20260903184525 11 290 0.0 0.0 0.00 0.00 0.00 1 1005.2
20260903183023 12 286 0.0 3.2 0.00 0.00 0.00 1 1005.2
20260903181533 12 301 0.0 1.6 0.00 0.00 0.00 6 1005.1
20260903180016 12 293 0.0 1.6 0.00 0.00 0.00 7 1005.2
20260903174510 12 327 0.0 6.4 0.00 0.00 0.00 15 1005.0
20260903173006 13 219 0.0 1.6 0.00 0.00 0.00 23 1005.1
20260903171509 13 234 0.0 3.2 0.00 0.00 0.00 25 1005.1
20260903170107 13 289 0.0 3.2 0.00 0.00 0.00 20 1005.1
20260903164558 13 348 0.0 8.0 0.00 0.00 0.00 26 1005.0
20260903163102 14 360 0.0 6.4 0.00 0.00 0.00 36 1005.0
20260903161548 14 97 0.0 8.0 0.00 0.00 0.00 34 1005.0
20260903160040 15 300 0.0 9.7 0.00 0.00 0.00 40 1004.9
20260903154524 15 92 0.0 19.3 0.00 0.00 0.00 42 1004.9
20260903153020 15 321 0.0 9.7 0.00 0.00 0.00 44 1004.9
20260903151516 15 25 0.0 14.5 0.00 0.00 0.00 47 1004.9
20260903150011 16 242 1.6 16.1 0.00 0.00 0.00 50 1004.9
20260903144507 16 338 0.0 16.1 0.00 0.00 0.00 47 1005.0
20260903143002 16 73 0.0 11.3 0.00 0.00 0.00 45 1005.0
20260903141601 16 19 1.6 17.7 0.00 0.00 0.00 50 1005.0
20260903140055 16 71 1.6 12.9 0.00 0.00 0.00 55 1005.0
20260903134550 16 92 0.0 16.1 0.00 0.00 0.00 59 1005.0
20260903133046 17 260 0.0 16.1 0.00 0.00 0.00 59 1004.9
20260903131543 16 148 3.2 20.9 0.00 0.00 0.00 59 1004.9
20260903130038 17 355 0.0 19.3 0.00 0.00 0.00 60 1005.0
20260903124533 17 98 1.6 22.5 0.00 0.00 0.00 60 1005.1
20260903123033 17 348 0.0 11.3 0.00 0.00 0.00 60 1005.1
20260903121524 17 285 1.6 19.3 0.00 0.00 0.00 60 1005.1
20260903120020 17 65 0.0 14.5 0.00 0.00 0.00 59 1005.2
20260903114519 17 206 1.6 17.7 0.00 0.00 0.00 58 1005.1
20260903113012 17 39 1.6 16.1 0.00 0.00 0.00 60 1005.3
20260903111507 17 243 1.6 16.1 0.00 0.00 0.00 60 1005.2
20260903110004 17 54 0.0 14.5 0.00 0.00 0.00 60 1005.2
20260903104615 17 43 0.0 12.9 0.00 0.00 0.00 59 1005.4
20260903103104 17 148 0.0 11.3 0.00 0.00 0.00 58 1005.4
20260903101551 16 9 0.0 24.1 0.00 0.00 0.00 58 1005.5
20260903100046 17 285 0.0 12.9 0.00 0.00 0.00 55 1005.6
20260903094544 16 82 0.0 14.5 0.00 0.00 0.00 48 1005.6
20260903093101 16 279 0.0 19.3 0.00 0.00 0.00 57 1005.7
20260903091534 17 325 0.0 12.9 0.00 0.00 0.00 52 1005.7
20260903090030 17 34 0.0 9.7 0.00 0.00 0.00 49 1005.7
20260903084523 16 302 0.0 11.3 0.00 0.00 0.00 36 1005.8
20260903083020 16 23 0.0 14.5 0.00 0.00 0.00 27 1005.9
20260903081527 16 307 1.6 11.3 0.00 0.00 0.00 25 1006.0
20260903080010 16 9 0.0 9.7 0.00 0.00 0.00 1 1006.0
20260903074505 16 54 0.0 11.3 0.00 0.00 0.00 1 1006.0